Regional Weather Roundup
Issued by NWS San Diego, CA

Home | Current Version | Previous Version | Text Only | Print | Product List | Glossary On
Versions: 1 2 3 4 5 6 7 8 9 10 11 12 13 14 15 16 17 18 19 20 21 22 23 24 25 26 27 28 29 30 31 32 33 34 35 36 37 38 39 40 41 42 43 44 45 46 47 48 49 50
000
ASUS46 KSGX 241403
RWRSGX

SAN DIEGO HOURLY WEATHER ROUNDUP
NATIONAL WEATHER SERVICE SAN DIEGO CA
700 AM PDT THU APR 24 2014

NOTE: "FAIR" INDICATES FEW OR NO CLOUDS BELOW 12,000 FEET WITH NO
SIGNIFICANT WEATHER AND/OR OBSTRUCTIONS TO VISIBILITY.

CAZ042-043-060-061-PZZ750-775-241500-

GREATER SAN DIEGO AREA

CITY           SKY/WX    TMP DP  RH WIND       PRES   REMARKS
LINDBERGH FLD  PTCLDY    60  50  69 CALM      29.98R
CHULA VISTA      N/A     54  49  86 CALM      29.91R
IMPERIAL BEACH PTCLDY    51  48  89 SE3       29.98R
BROWN FIELD    CLEAR     54  48  80 S3        29.96R
MIRAMAR MCAS   PTCLDY    54  48  80 E3        29.96R
MONTGOMERY FLD CLEAR     56  50  80 CALM      29.97R

$$

NORTH SAN DIEGO COUNTY

CITY           SKY/WX    TMP DP  RH WIND       PRES   REMARKS
CAMP PENDLETON CLEAR     48  44  86 CALM      29.97R FOG
RED BEACH      FAIR      58  49  72 NE5       29.97R
OCEANSIDE AP   CLEAR     48  45  89 CALM      29.96R
VISTA            N/A     50  47  88 CALM      29.95R
CARLSBAD       CLEAR     56  48  74 CALM      29.96R
DEL MAR          N/A     55  52  89 CALM      29.98R
FALLBROOK        N/A     53  52  97 CALM      29.97R
SAN MARCOS       N/A     55  49  82 CALM      29.95R
R. PENASQUITOS   N/A     55  50  85 CALM      29.97R

$$

EAST SAN DIEGO COUNTY

CITY           SKY/WX    TMP DP  RH WIND       PRES   REMARKS
RAMONA         CLEAR     44  41  89 CALM      29.97R
GILLESPIE FLD  FAIR      52  48  87 W5        29.99R
LA MESA          N/A     55  50  82 CALM      29.91R
JAMUL            N/A     49  46  90 CALM      29.96R
DESCANSO N       N/A     45  35  68 CALM      29.87R
MT. LAGUNA OBS   N/A     48  13  24 E2        29.64
CAMPO            N/A     41  36  82 NE7       29.96R

$$

ORANGE COUNTY AND THE LOS ANGELES BASIN

CITY           SKY/WX    TMP DP  RH WIND       PRES   REMARKS
JOHN WAYNE AP  PTCLDY    59  47  64 CALM      29.96R
LAGUNA BEACH     N/A     50  47  90 CALM      29.95R
LAKE FOREST FR   N/A     53  44  72 CALM      29.88R
SANTA ANA        N/A     52  48  84 CALM      29.93R
FULLERTON      CLEAR     56  46  69 CALM      29.96R
LONG BEACH     CLEAR     56  50  80 CALM      29.97R
L.A. AP        PTCLDY    57  50  77 E5        29.97R
L.A. DOWNTOWN  CLEAR     58  50  75 CALM      29.96R

$$

THE INLAND EMPIRE

CITY           SKY/WX    TMP DP  RH WIND       PRES   REMARKS
CORONA         CLEAR     50  44  79 CALM        N/A
CHINO          PTCLDY    51  45  79 CALM      29.98R
ONTARIO        PTCLDY    56  42  59 N5        29.97R
RIVERSIDE AP   CLEAR     54  43  66 CALM      29.97R
RIV CYN CREST    N/A     54  50  86 SW2       29.94R
MORENO VALLEY    N/A     50  44  78 CALM      28.09R
HORSETHIEF CYN   N/A     53  43  68 S3        29.97R
PERRIS           N/A     52  47  84 CALM        N/A
MENIFEE          N/A     52  49  91 CALM      30.03R
HEMET EAST       N/A     54  36  51 CALM      29.95S
FRENCH VALLEY  NOT AVBL
TEMECULA         N/A     50  48  92 CALM      29.95R

$$

SAN BERNARDINO AND RIVERSIDE COUNTY MOUNTAINS

CITY           SKY/WX    TMP DP  RH WIND       PRES   REMARKS
BIG BEAR AP    SUNNY     27  14  59 CALM      30.12R
BIG BEAR SHEA    N/A     23  10  56 CALM      30.18R
ANGELUS OAKS     N/A     42  23  47 MISG      29.92R
PINE COVE        N/A     47  22  38 CALM      29.97R

$$

SOUTHERN DESERT INCLUDING THE COACHELLA VALLEY

CITY           SKY/WX    TMP DP  RH WIND       PRES   REMARKS
PALM SPRINGS   MOSUNNY   63  42  46 CALM      29.93R
THOUSAND PALMS   N/A     67  33  28 N1        29.88R
PALM DESERT      N/A     60  46  59 CALM      31.44S
THERMAL        SUNNY     64  40  41 N7        29.88R
BLYTHE         SUNNY     60  13  15 CALM      29.90R
IMPERIAL AP    SUNNY     61  46  57 NW5       29.87R
EL CENTRO NAS  MOSUNNY   60  39  45 W3        29.88R
YUMA AZ        MOSUNNY   64  26  23 CALM      29.89R
MEXICALI       SUNNY     57  36  44 CALM      29.88

$$

UPPER DESERT

CITY           SKY/WX    TMP DP  RH WIND       PRES   REMARKS
VICTORVILLE AP   N/A     48  23  37 S6        30.03R
HESPERIA         N/A     43  28  54 W1        30.13R
APPLE VALLEY     N/A     40  33  75 CALM      30.12R
GRAY BUTTE AP  NOT AVBL
PALMDALE       CLEAR     46  24  42 S7        30.03R
LANCASTER      CLEAR     47  30  51 CALM      30.03R
DAGGETT        SUNNY     51  25  36 W12       30.00R
29 PALMS N     SUNNY     55  24  30 W12       30.06R
NEEDLES        SUNNY     62  11  13 CALM      29.93R

$$

REGIONAL REPORTS

CITY           SKY/WX    TMP DP  RH WIND       PRES   REMARKS
SANTA BARBARA  CLEAR     51  43  74 NE3       29.95R
SANDBERG       CLEAR     45  31  58 N14G20    30.06R
MT. WILSON       N/A     48  18  29 MISG        N/A
LAS VEGAS NV   MOSUNNY   59  18  20 S7        29.93R
PHOENIX AZ     MOSUNNY   64  23  21 E8        29.91R
TIJUANA        CLEAR     55  46  71 S3        29.99
ENSENADA NW      N/A     56  32  40 CALM      29.96R

$$

OFFSHORE ISLANDS

CITY           SKY/WX    TMP DP  RH WIND       PRES   REMARKS
CATALINA ARPT  CLEAR     59  31  34 S3        29.98R
SAN NICOLAS IS PTCLDY    57  50  77 NW10      29.96R

$$

MARINE AND OFFSHORE BUOY REPORTS

STATION/POSITION SKY/WX   TEMP    WIND        PRES    SWELL
                          AIR SEA DIR/SP/G            HT/PER/DIR
                          (F)     (DEG/KT/KT) (MB)    (FT/S/D)
S CLEMENTE BASIN           59 62  230/  2/  4 1014.3R   7/270/12
SAN NICOLAS IS.               57                N/A     5/310/13
SO. S. ROSA ISLA           55 56  320/ 19/ 23 1013.7R   5/11
W. S. BARBARA CH           54 54  320/ 23/ 27 1013.8R   7/310/13
S. MONICA BASIN            60 60   50/  4/  4 1013.7R   5/270/ 8
S PEDRO CHANNEL               62                N/A     2/270/11
DANA POINT                    62                N/A     3/280/11
CMP PENDLETON NS              63                N/A     2/210/14
OCEANSIDE OFFSHR              62                N/A     2/200/14
TORREY PINES OTR              63                N/A     3/290/12
LA JOLLA 1                 58 60  120/  2/  4 1014.6R
MISSION BAY BUOY              62                N/A     3/260/13
SAN DIEGO BAY                 65              1014.8R
POINT LOMA SOUTH              64                N/A     3/270/11

$$




USA.gov is the U.S. government's official web portal to all federal, state and local government web resources and services.